Change the Weather History Date:

Tuesday, August 28, 2012

  Actual Average Record
Temperature  
Mean Temperature 85 °F 80 °F  
Max Temperature 97 °F 91 °F 102 °F (1924)
Min Temperature 73 °F 69 °F 54 °F (1986)
Degree Days  
Heating Degree Days 0 0  
Month to date heating degree days 0 0  
Since 1 June heating degree days 0 0  
Since 1 July heating degree days 0 0  
Cooling Degree Days 20 15  
Month to date cooling degree days 468 465  
Year to date cooling degree days 1988 1734  
Since 1 June cooling degree days 1463 1412  
Growing Degree Days 34 (Base 50)    
Moisture  
Dew Point 68 °F    
Average Humidity 60    
Maximum Humidity 87    
Minimum Humidity 33    
Precipitation  
Precipitation 0.00 in 0.10 in 1.65 in (1978)
Month to date precipitation 1.14 2.15  
Year to date precipitation 23.46 34.25  
Sea Level Pressure  
Sea Level Pressure 29.89 in    
Wind  
Wind Speed 10 mph (NE)    
Max Wind Speed 23 mph    
Max Gust Speed 30 mph    
Visibility 10 miles    
Events      
T = Trace of Precipitation, MM = Missing Value Source: NWS Daily Summary

Daily Weather History Graph

Daily Weather History Graph

Search for Another Location

Airport or City:

Trip Planner

Search our weather history database for the weather conditions in past years. The results will help you decide how hot, cold, wet, or windy it might be!

Date:

Astronomy

Aug. 28, 2012 Rise Set
Actual Time 6:35 AM CDT 7:33 PM CDT
Civil Twilight 6:10 AM CDT 7:59 PM CDT
Nautical Twilight 5:39 AM CDT 8:29 PM CDT
Astronomical Twilight 5:08 AM CDT 9:00 PM CDT
Moon 5:32 PM CDT (8/28) 3:31 AM CDT (8/28)
Length of Visible Light 13h 49m
Length of Day
12h 58m
Waxing Gibbous, 90% of the Moon is Illuminated
Aug 28
Waxing Gibbous
Aug 31
Full
Sep 8
Last Quarter
Sep 15
New
Sep 22
First Quarter

Hourly Weather History & Observations

Time (CDT) Temp. Heat Index Dew Point Humidity Pressure Visibility Wind Dir Wind Speed Gust Speed Precip Events Conditions
12:53 AM 73.9 °F - 66.9 °F 79% 29.94 in 10.0 mi North 3.5 mph - N/A   Clear
1:53 AM 73.9 °F - 66.0 °F 76% 29.93 in 10.0 mi North 5.8 mph - N/A   Clear
2:53 AM 73.0 °F - 68.0 °F 84% 29.91 in 10.0 mi North 5.8 mph - N/A   Clear
3:53 AM 73.9 °F - 69.1 °F 85% 29.91 in 10.0 mi NNE 6.9 mph - N/A   Clear
4:53 AM 73.0 °F - 69.1 °F 87% 29.91 in 10.0 mi NNE 6.9 mph - N/A   Clear
5:53 AM 73.0 °F - 70.0 °F 90% 29.92 in 10.0 mi NNE 6.9 mph - N/A   Clear
6:53 AM 73.0 °F - 69.1 °F 87% 29.93 in 8.0 mi NNE 8.1 mph - N/A   Clear
7:53 AM 75.9 °F - 70.0 °F 82% 29.95 in 10.0 mi NNE 9.2 mph - N/A   Clear
8:53 AM 81.0 °F 84.1 °F 69.1 °F 67% 29.94 in 10.0 mi NNE 11.5 mph - N/A   Clear
9:53 AM 86.0 °F 90.1 °F 69.1 °F 57% 29.94 in 10.0 mi ENE 10.4 mph - N/A   Clear
10:53 AM 90.0 °F 94.5 °F 69.1 °F 50% 29.94 in 10.0 mi ENE 10.4 mph 18.4 mph N/A   Clear
11:53 AM 91.9 °F 95.9 °F 68.0 °F 45% 29.93 in 10.0 mi ENE 13.8 mph 24.2 mph N/A   Clear
12:53 PM 93.0 °F 96.4 °F 66.9 °F 42% 29.91 in 10.0 mi ENE 15.0 mph 21.9 mph N/A   Partly Cloudy
1:53 PM 95.0 °F 97.9 °F 66.0 °F 38% 29.88 in 10.0 mi NE 12.7 mph 24.2 mph N/A   Scattered Clouds
2:53 PM 95.0 °F 97.4 °F 64.9 °F 37% 29.85 in 10.0 mi NE 18.4 mph 26.5 mph N/A   Partly Cloudy
3:53 PM 96.1 °F 96.9 °F 62.1 °F 32% 29.83 in 10.0 mi NE 15.0 mph 26.5 mph N/A   Clear
4:53 PM 91.9 °F 93.3 °F 64.0 °F 39% 29.84 in 10.0 mi ENE 15.0 mph 21.9 mph N/A   Overcast
5:53 PM 89.1 °F 92.9 °F 68.0 °F 50% 29.83 in 10.0 mi East 10.4 mph - N/A   Overcast
6:53 PM 89.1 °F 93.7 °F 69.1 °F 52% 29.82 in 10.0 mi East 10.4 mph - N/A   Overcast
7:53 PM 86.0 °F 90.7 °F 70.0 °F 59% 29.82 in 10.0 mi ENE 6.9 mph - N/A   Overcast
8:53 PM 82.9 °F 87.5 °F 71.1 °F 67% 29.85 in 10.0 mi NE 5.8 mph - N/A   Mostly Cloudy
9:53 PM 82.9 °F 87.5 °F 71.1 °F 67% 29.85 in 10.0 mi ENE 10.4 mph 17.3 mph N/A   Overcast
10:53 PM 82.0 °F 86.3 °F 71.1 °F 69% 29.85 in 10.0 mi ENE 9.2 mph - N/A   Mostly Cloudy
11:53 PM 80.1 °F 83.2 °F 70.0 °F 71% 29.85 in 10.0 mi NE 10.4 mph - N/A   Partly Cloudy